Location: ????????
(55.7667°N, 37.4833°E)
Time: 13:04:28
(UTC+00:00)

Cosmos 2219 Rocket - Pass Details

Date: 19 May 2025
Orbit: 828 x 844 km, 71.0° (Epoch: 20 June)

Event Time Altitude Azimuth Distance (km) Brightness Sun altitude
Rises 18:52:28 0° 316° (NW) 3,405 7.7 -7.6°
Reaches altitude 10° 18:55:29 10° 332° (NNW) 2,466 6.3 -7.8°
Maximum altitude 18:59:52 22° 23° (NNE) 1,745 4.3 -8.2°
Drops below altitude 10° 19:04:13 10° 74° (ENE) 2,452 4.4 -8.5°
Sets 19:07:12 0° 89° (E) 3,381 5.0 -8.7°
